OPS 4682 DEB, 38454

Orbit data source: Space-Track

OPS 4682 DEB, 38454 is space debris in LEO originally from a launch on Sat, 03 Apr 1965 UTC launched from the Air Force Western Test Range (AFWTR). Debris objects in space refer to the collection of defunct objects orbiting the Earth. Examples of debris include non-operational satellites, rocket bodies, and fragments generated from explosions, collisions, or faulty payload assembly.

Loading next visibility...
Identifier
38454, 1965-027FK
Orbit
LEO
Country
Flag of USUS
Related business
Manufacturer
Unknown
Mission
Spacecraft
Bus & Motor
Unknown
Mass
Unknown
Launch date (UTC)
1965-04-03 (61 years ago)
Launch vehicle
Unknown
Launch site
Air Force Western Test Range (AFWTR)
Object type
Payload
Rocket body
Debris
Shape & HBR
Unknown shape, 0.1 m
Radar Cross Section
Small (<0.1 m²)

Expand to show TLE details & history
Last TLE update: 1 day ago

TLE from 1 day ago
0 OPS 4682 DEB
1 38454U 65027FK  26206.88307157  .00000284  00000-0  97947-3 0  9992
2 38454  90.2437   7.9226 0035994 113.7452 246.7450 12.95339758587617
Epoch: 2026-07-25T21:11Z
TLE epoch observation values (Epoch: 2026-07-25T21:11:37.383Z)
Latitude
0.00003°
Longitude
106.42787°
Altitude
1,294.247 km
Speed
7.204 km/s
True Right ascension
00h 31m 41s
True Declination
0° 00' 00"
Sunlit
Object was in daylight at epoch
Visualization orbit readout
Latitude
Unknown
Longitude
Unknown
Altitude
Unknown
Speed
Unknown
Apparent Right ascension
Unknown
Apparent Declination
Unknown
Sunlit
N/A
Visualization observer readout
Local Sidereal Time
20:30:18
Azimuth
Unknown
Elevation
Unknown
Doppler factor
Unknown
Orbital elements
Apogee altitude
1,305.09 km
Perigee altitude
1,249.979 km
Semi-major axis
7,655.671 km
Eccentricity
0.0036
Inclination
90.2437°
RAAN
7.9226°
Arg. of periapsis
113.7452°
True anomaly
246.36672°
Mean anomaly
246.745°
Eccentric anomaly
246.55579°
Mean motion
3.24017 °/min
Orbital period
111.11 mins
BSTAR
0.00097947
Loading maneuver chart data...
Computing Atmospheric mass density...
Loading historical data...
Loading historical data...
Loading historical data...
Loading historical data...
Loading historical data...
Loading historical data...
Loading historical data...

Documentation

Showing up to 5 results
|